This is the latest recevied weather packets stored in our database for station/object W0VI. If no packets are shown the sender has not sent any weather packets the latest 10 day(s).
| Time | Temp. | Humidity | Pressure | Rain* | Wind** | Luminosity | Snow |
|---|---|---|---|---|---|---|---|
| 1778092135 | 5° C | 53% | 1016.8 hPa | 0 mm | - | 232 W/m² | - |
| 1778091832 | 5.56° C | 52% | 1016.7 hPa | 0 mm | - | 196 W/m² | - |
| 1778091529 | 5.56° C | 52% | 1016.5 hPa | 0 mm | - | 230 W/m² | - |
| 1778091227 | 5.56° C | 51% | 1016.8 hPa | 0 mm | - | 281 W/m² | - |
| 1778090923 | 5° C | 53% | 1016.7 hPa | 0 mm | - | 289 W/m² | - |
| 1778090620 | 5° C | 53% | 1016.8 hPa | 0 mm | - | 292 W/m² | - |
| 1778090316 | 5° C | 52% | 1016.9 hPa | 0 mm | - | 317 W/m² | - |
| 1778090013 | 5° C | 54% | 1016.8 hPa | 0 mm | - | 230 W/m² | - |
| 1778089710 | 5° C | 53% | 1016.9 hPa | 0 mm | - | 233 W/m² | - |
| 1778089408 | 5° C | 53% | 1016.9 hPa | 0 mm | - | 300 W/m² | - |
| 1778089105 | 5° C | 53% | 1016.8 hPa | 0 mm | - | 314 W/m² | - |
| 1778088802 | 5° C | 53% | 1017.1 hPa | 0 mm | - | 257 W/m² | - |
| 1778088499 | 5° C | 52% | 1016.9 hPa | 0 mm | - | 267 W/m² | - |
| 1778088195 | 5.56° C | 52% | 1017 hPa | 0 mm | - | 326 W/m² | - |
| 1778087893 | 5° C | 53% | 1017 hPa | 0 mm | - | 328 W/m² | - |
| 1778087590 | 5° C | 53% | 1017.1 hPa | 0 mm | - | 317 W/m² | - |
| 1778087288 | 5° C | 53% | 1017 hPa | 0 mm | - | 292 W/m² | - |
| 1778086983 | 5° C | 54% | 1017 hPa | 0 mm | - | 276 W/m² | - |
| 1778086683 | 5° C | 54% | 1017.1 hPa | 0 mm | - | 346 W/m² | - |
| 1778086379 | 4.44° C | 54% | 1017 hPa | 0 mm | - | 373 W/m² | - |
| 1778086076 | 4.44° C | 55% | 1017.3 hPa | 0 mm | - | 276 W/m² | - |
| 1778085773 | 5° C | 55% | 1017 hPa | 0 mm | - | 189 W/m² | - |
| 1778085469 | 5° C | 55% | 1017.2 hPa | 0 mm | - | 189 W/m² | - |
| 1778085164 | 5° C | 54% | 1017.3 hPa | 0 mm | - | 219 W/m² | - |
| 1778084861 | 5° C | 54% | 1017 hPa | 0 mm | - | 229 W/m² | - |
* Rain latest hour (hover to see other rain measurements)
** Current wind speed in m/s (hover to see current wind gust speed)